Location: Mahannah Oil Field
(37.4664°N, 96.6003°W)
Time: 16:53:56
(UTC+00:00)

Vanguard 2 Rocket - Pass Details

Date: 27 June 2021
Orbit: 554 x 3325 km, 32.9° (Epoch: 24 July)

Event Time Altitude Azimuth Distance (km) Brightness Sun altitude
Rises 06:16:32 0° 283° (WNW) 7,036 11.6 -29.1°
Reaches altitude 10° 06:22:35 10° 274° (W) 5,691 11.0 -29.2°
Enters shadow 06:34:24 28° 229° (SW) 3,503 9.5 -29.2°
